Regional Weather Roundup
Issued by NWS Albany, NY

Home | Current Version | Previous Version | Graphics & Text | Print | Product List | Glossary Off
Versions: 1 2 3 4 5 6 7 8 9 10 11 12 13 14 15 16 17 18 19 20 21 22 23 24 25 26 27

000
ASUS41 KALY 230310
RWRALY

NEW YORK STATE HOURLY WEATHER ROUNDUP
NATIONAL WEATHER SERVICE ALBANY NY
1000 PM EST MON JAN 22 2018

NOTE: "FAIR" INDICATES FEW OR NO CLOUDS BELOW 12,000 FEET WITH NO
SIGNIFICANT WEATHER AND/OR NO OBSTRUCTIONS TO VISIBILITY.

NYZ032-033-038>043-046>054-057>066-NYZ062>081-082-084-230400-
EAST


CITY           SKY/WX    TMP DP  RH WIND       PRES   REMARKS
ALBANY         CLOUDY    38  34  85 SE8       30.06F WCI  32
GLENS FALLS    CLOUDY    30  30 100 CALM      30.07F FOG
POUGHKEEPSIE   CLOUDY    38  36  92 CALM      30.10F FOG
NEWBURGH       FOG       39  39 100 SE12      30.10F VSB 1/2 WCI  32
MONTGOMERY     FOG       37  36  96 N7        30.06F VSB 1   WCI  32
WHITE PLAINS   FOG       38  38 100 E10       30.09S VSB 1/8 WCI  31
ISLIP          FOG       43  41  93 E5        30.09F VSB 1/8
NEW YORK CITY  FOG       37  35  92 NE10      30.10F VSB 1/8 WCI  30
CENTRAL PARK   CLOUDY    38  37  97 NE8       30.12F FOG     WCI  32
$$

NYZ005>009-017-018-044>046-055-056-230400-
CENTRAL


CITY           SKY/WX    TMP DP  RH WIND       PRES   REMARKS
FULTON         MOCLDY    41  38  89 VRB6      29.83F
SYRACUSE       FAIR      37  37 100 CALM      29.85F
ROME           CLOUDY    38  36  92 SE10      29.95F WCI  31
ELMIRA         FAIR      38  38 100 CALM      29.87F FOG
BINGHAMTON     FAIR      40  38  93 SE8       29.90F WCI  34
MONTICELLO     LGT RAIN  35  35 100 E12       30.02F VSB 1/4 WCI  27
$$

NYZ026>034-041>043-087-230400-
NORTH


CITY           SKY/WX    TMP DP  RH WIND       PRES   REMARKS
WATERTOWN      FAIR      31  31 100 N3        29.85F FOG
FORT DRUM      NOT AVBL
OGDENSBURG     CLOUDY    24  22  94 E6        29.91F WCI  17
MASSENA        CLOUDY    23  21  92 NE18      29.95F WCI   9
SARANAC LAKE   CLOUDY    31  31 100 CALM      29.87F
PLATTSBURGH    CLOUDY    29  27  92 S15       30.01F WCI  18
$$

NYZ001>004-010>016-019>021-085-230400-
WEST


CITY           SKY/WX    TMP DP  RH WIND       PRES   REMARKS
NIAGARA FALLS  LGT RAIN  41  38  89 E5        29.71F FOG
BUFFALO        LGT RAIN  50  46  86 S8        29.71F
DUNKIRK        CLOUDY    55  46  71 S10       29.69F
JAMESTOWN      LGT RAIN  49  43  80 S12       29.73F
WELLSVILLE     MOCLDY    47  41  80 S13G22    29.80F
ROCHESTER      CLOUDY    47  44  90 S9        29.76F
PENN YAN       FAIR      46  39  76 SW12      29.83F
$$

             KEY
       WCI = WIND CHILL INDEX
       VSB = VISIBILITY
       HX  = HEAT INDEX
$$




USA.gov is the U.S. government's official web portal to all federal, state and local government web resources and services.